Lid_Strength_Index
8 10 12 10 10 10 11 13 13 11 10 11 12 11 10 7 7 6 6 5 4 4 3 2 2 2 2 1 1 1 1 1 1 2 1 1 1 0 0 -1 -1 -1 -1 -1
10 12 9 9 9 11 11 13 12 10 9 11 12 12 10 9 9 7 6 5 5 4 3 3 2 2 2 2 2 1 1 1 1 1 1 0 0 0 0 -0 -1 -1 -1 -1
12 10 8 10 10 12 12 12 12 12 10 10 11 13 11 9 8 8 8 6 5 4 4 3 3 3 2 2 2 2 1 1 1 1 1 0 0 0 1 1 0 -0 -1 -1
10 8 10 10 11 10 13 10 11 12 13 15 10 16 11 9 9 8 8 7 7 5 3 3 3 3 3 2 1 1 1 1 1 1 2 2 2 3 1 1 0 0 -1 -0
11 10 10 11 11 10 12 10 11 11 12 13 13 15 13 10 11 9 8 7 6 6 4 3 3 3 2 2 2 2 1 1 1 2 1 1 2 1 1 1 1 0 -0 -0
10 7 9 10 9 9 9 11 11 11 13 18 14 14 14 11 10 9 8 7 6 6 4 4 2 2 2 2 2 2 2 2 1 2 2 1 2 2 2 1 1 1 0 0
10 10 9 9 11 9 11 14 18 19 19 18 13 14 13 10 9 9 8 7 7 6 6 4 3 3 3 3 2 2 2 2 1 1 1 1 1 1 2 1 1 1 1 1
15 16 10 9 11 12 12 13 17 21 19 17 12 16 13 8 7 7 7 7 7 6 6 5 3 3 3 3 2 2 2 2 2 1 1 1 1 1 1 1 1 1 1 1
15 15 9 9 9 10 13 15 11 16 15 17 14 11 9 8 8 7 7 6 6 6 5 5 4 3 2 3 2 2 2 2 2 2 1 1 1 1 1 1 1 1 0 0
12 16 12 11 10 11 12 11 16 15 20 20 16 15 14 12 11 8 8 7 6 5 5 4 3 3 2 2 2 2 2 2 2 1 1 1 1 1 1 1 1 1 1 0
12 13 14 13 14 14 14 15 14 14 15 19 20 17 11 12 11 11 9 7 7 6 6 4 4 3 3 2 2 2 2 2 2 2 1 1 1 1 1 1 1 1 1 0
11 13 16 14 11 11 11 13 13 17 17 16 17 17 11 12 11 10 10 8 8 7 8 8 8 8 7 6 3 2 2 2 2 2 1 1 1 1 1 1 1 1 1 1
10 13 17 16 13 12 13 12 13 13 14 16 18 16 12 11 12 11 11 11 10 10 10 10 10 11 10 9 8 7 7 6 2 2 2 2 2 1 1 1 1 1 1 1
10 13 15 17 16 14 16 15 14 14 16 16 16 15 14 13 13 13 13 13 12 11 11 12 12 12 12 11 10 9 9 8 6 4 3 2 2 2 1 1 1 1 2 2
10 14 13 13 13 13 15 15 15 16 14 16 16 16 14 14 14 14 14 13 13 14 14 13 13 14 13 13 12 11 11 9 8 8 9 8 7 6 4 2 2 2 2 2
11 14 13 14 13 13 15 14 15 15 15 14 15 16 13 12 12 14 14 14 15 15 14 14 14 14 15 14 13 12 12 12 11 11 12 12 11 10 10 8 8 7 5 4
13 14 14 17 13 14 16 15 15 14 14 14 16 14 12 13 13 14 14 14 15 15 15 14 15 14 14 14 14 14 13 13 13 14 13 14 13 12 12 11 10 11 10 10
14 14 14 15 14 19 14 12 13 14 14 13 13 12 12 12 12 13 13 14 15 15 15 15 15 15 15 14 14 14 14 14 15 15 15 16 16 15 14 14 13 12 12 12
11 13 15 16 16 15 14 13 13 15 14 12 13 12 12 11 11 13 13 13 14 14 15 15 15 15 15 16 15 15 16 16 16 17 17 16 16 16 15 14 14 14 13 13
12 12 14 15 17 19 13 11 10 11 15 11 12 12 12 12 15 14 13 13 13 14 15 15 16 16 16 17 16 16 17 17 18 18 17 16 16 16 16 15 15 15 15 15
15 14 14 15 16 14 11 11 10 16 14 10 11 11 12 13 13 13 13 14 14 15 16 15 15 17 18 17 16 17 17 18 18 17 16 16 16 16 16 16 15 15 15 15
15 15 14 15 16 17 10 11 13 11 10 10 10 10 11 12 12 12 13 13 13 13 14 14 14 15 16 16 16 16 17 17 17 17 16 16 15 15 15 15 15 15 15 15
16 13 13 13 12 10 10 10 9 10 10 11 10 10 10 11 11 11 11 12 13 13 14 14 15 15 15 16 16 16 17 16 17 15 14 14 14 13 13 13 13 13 13 13
14 13 14 14 11 11 9 9 9 9 10 10 10 10 10 11 11 11 11 12 12 14 15 15 15 16 16 16 16 17 17 17 16 15 14 14 14 14 13 13 13 13 13 13
13 13 14 14 12 12 11 9 8 9 10 10 10 10 10 10 10 11 11 12 13 14 15 16 16 16 17 16 17 17 18 18 16 14 14 13 13 13 13 13 12 12 11 12
14 14 14 13 11 10 10 9 9 9 10 10 11 11 11 12 12 13 13 14 15 15 16 17 15 16 16 16 17 18 19 19 18 15 14 14 14 14 13 13 13 11 11 11